Location: Banff
(51.1670°N, 115.5670°W)
Time: 03:07:33
(UTC-07:00)

Amateur Radio Satellites - All Passes

Search period start: 23 January 2018 02:37
Search period end: 24 January 2018 02:37
Location: Banff, 51.1670°N, 115.5670°W

Satellite Date Start Highest point End Downlink Frequencies (MHz)
Time Altitude Azimuth
MOZHAYETS 4 23 Jan 02:39:59 02:44:35 70° 73° (ENE) 02:49:15
Oscar 19 23 Jan 02:48:19 02:53:31 80° 288° (WNW) 02:58:40 437.125/150
CUBESAT XI-V 23 Jan 02:50:15 02:54:15 28° 63° (ENE) 02:58:13 437.345
Gurwin Techsat 1B 23 Jan 02:53:28 02:58:49 88° 107° (ESE) 03:04:09 435.225
POLYITAN 1 23 Jan 02:53:55 02:55:15 11° 307° (NW) 02:56:34 437.675
ISS 23 Jan 02:54:19 02:56:48 20° 216° (SW) 02:59:16 437.550
BUGSAT 1 23 Jan 03:03:42 03:07:28 31° 295° (WNW) 03:11:13 437.445
AO-91 23 Jan 03:04:14 03:08:25 44° 291° (WNW) 03:13:03 145.960
YUBILEINY 23 Jan 03:06:25 03:10:14 13° 321° (NW) 03:14:03 435.215
AO-7 23 Jan 03:09:28 03:16:21 27° 91° (E) 03:23:09 .
BEESAT 23 Jan 03:09:54 03:14:41 82° 73° (ENE) 03:19:30 436.000
UKube-1 23 Jan 03:32:16 03:34:26 13° 272° (W) 03:36:35 .
KKS-1 23 Jan 03:52:29 03:55:46 21° 59° (ENE) 03:59:04 437.445
ITAMSAT 1 23 Jan 03:59:59 04:04:37 31° 95° (E) 04:09:14 435.822/435.867
STARS 23 Jan 04:02:59 04:04:47 12° 53° (NE) 04:06:36 437.465
ITUPSAT 1 23 Jan 04:10:22 04:14:39 32° 264° (W) 04:18:58 437.325
MOZHAYETS 4 23 Jan 04:19:11 04:22:15 17° 271° (W) 04:25:20
CUBESAT XI-V 23 Jan 04:26:57 04:31:27 44° 262° (W) 04:35:56 437.345
Oscar 19 23 Jan 04:28:57 04:32:04 16° 308° (NW) 04:35:10 437.125/150
Gurwin Techsat 1B 23 Jan 04:34:27 04:38:07 19° 306° (NW) 04:41:46 435.225
DOVE 4 23 Jan 04:41:01 04:44:27 22° 92° (E) 04:47:59 437.250
BEESAT 23 Jan 04:50:18 04:53:05 15° 272° (W) 04:55:52 436.000
AO-7 23 Jan 05:01:38 05:10:05 84° 293° (WNW) 05:18:26 .
SO-50 23 Jan 05:12:44 05:16:32 28° 118° (ESE) 05:20:25 436.795
STRAND 1 23 Jan 05:13:14 05:15:28 13° 50° (NE) 05:17:43 437.568
KKS-1 23 Jan 05:27:36 05:31:57 59° 258° (WSW) 05:36:22 437.445
STARS 23 Jan 05:36:01 05:40:22 74° 73° (ENE) 05:44:46 437.465
ITAMSAT 1 23 Jan 05:39:18 05:44:15 45° 294° (WNW) 05:49:11 435.822/435.867
XW-2F 23 Jan 05:41:59 05:43:11 11° 87° (E) 05:44:25 145.980 - 146.000
FO-29 23 Jan 05:44:23 05:47:35 15° 50° (NE) 05:50:38 435.910
CUTE-I 23 Jan 05:51:59 05:55:25 17° 88° (E) 05:58:51 437.470
XW-2D 23 Jan 05:52:55 05:55:24 17° 90° (E) 05:57:52 145.860 - 145.880
XW-2B 23 Jan 06:10:11 06:13:17 24° 93° (E) 06:16:20 145.730 - 145.750
HO-68 23 Jan 06:13:48 06:18:20 17° 85° (E) 06:22:52 435.675
DOVE 4 23 Jan 06:18:11 06:22:23 49° 290° (WNW) 06:26:46 437.250
M-CUBED/EXP-1 PRIME 23 Jan 06:21:23 06:24:47 76° 294° (WNW) 06:28:02 437.505
CUTE 1.7 + AOD 2 23 Jan 06:36:57 06:39:39 16° 89° (E) 06:42:20 437.475
XW-2C 23 Jan 06:40:19 06:44:00 50° 99° (E) 06:47:39 145.795 - 145.815
LilacSat-2 23 Jan 06:41:29 06:45:14 56° 100° (E) 06:48:56 437.200
STRAND 1 23 Jan 06:48:41 06:53:42 62° 70° (ENE) 06:58:46 437.568
RS-15 23 Jan 06:49:28 06:58:18 24° 99° (E) 07:07:01 29.354- 29.394
SO-50 23 Jan 06:52:21 06:56:45 54° 318° (NW) 07:01:16 436.795
AO-7 23 Jan 06:55:06 07:01:50 28° 316° (NW) 07:08:34 .
KAITUO 1B 23 Jan 07:07:37 07:11:20 72° 102° (ESE) 07:15:00 145.475/437.950
NUDT-PHONESAT 23 Jan 07:13:41 07:17:23 80° 103° (ESE) 07:21:02 437.300
YUBILEINY 23 Jan 07:13:53 07:16:00 11° 34° (NNE) 07:18:06 435.215
XW-2F 23 Jan 07:14:03 07:17:48 75° 285° (WNW) 07:21:31 145.980 - 146.000
STARS 23 Jan 07:14:45 07:17:14 15° 271° (W) 07:19:45 437.465
CUBEBUG 2 23 Jan 07:15:21 07:19:31 29° 93° (E) 07:23:37 437.445
UWE-3 23 Jan 07:15:45 07:18:57 18° 88° (E) 07:22:05 435.000/436.395/437.385
ITAMSAT 1 23 Jan 07:22:26 07:22:30 10° 315° (NW) 07:22:35 435.822/435.867
FO-29 23 Jan 07:25:24 07:31:48 64° 70° (ENE) 07:37:30 435.910
XW-2D 23 Jan 07:26:12 07:29:51 49° 289° (WNW) 07:33:29 145.860 - 145.880
AAUSAT CUBESAT 2 23 Jan 07:28:16 07:30:40 15° 88° (E) 07:33:04 437.432
CUTE-I 23 Jan 07:30:47 07:36:10 84° 286° (WNW) 07:41:30 437.470
ZACube-1 23 Jan 07:33:54 07:36:23 14° 86° (E) 07:38:52 437.345
AO-73 23 Jan 07:39:02 07:41:27 14° 86° (E) 07:43:52 145.935
UNISAT 6 23 Jan 07:39:41 07:41:24 12° 52° (NE) 07:43:08 437.425
XW-2B 23 Jan 07:44:06 07:47:32 34° 292° (WNW) 07:50:56 145.730 - 145.750
SEEDS 23 Jan 07:53:47 07:57:54 56° 100° (E) 08:01:59 437.485
HO-68 23 Jan 08:00:05 08:07:17 77° 106° (ESE) 08:14:27 435.675
Oscar 11 23 Jan 08:08:56 08:11:44 17° 89° (E) 08:14:32 .
CUTE 1.7 + AOD 2 23 Jan 08:11:43 08:15:54 62° 288° (WNW) 08:20:02 437.475
XW-2C 23 Jan 08:15:15 08:17:51 18° 298° (WNW) 08:20:26 145.795 - 145.815
LilacSat-2 23 Jan 08:16:40 08:19:07 17° 299° (WNW) 08:21:34 437.200
XW-2A 23 Jan 08:25:46 08:29:00 42° 99° (E) 08:32:11 145.665 - 145.685
STRAND 1 23 Jan 08:29:23 08:33:19 22° 269° (W) 08:37:17 437.568
SO-50 23 Jan 08:34:50 08:38:11 20° 342° (NNW) 08:41:35 436.795
KAITUO 1B 23 Jan 08:42:59 08:44:47 13° 301° (WNW) 08:46:35 145.475/437.950
AO-7 23 Jan 08:49:07 08:51:53 12° 342° (NNW) 08:54:40 .
NUDT-PHONESAT 23 Jan 08:49:09 08:50:39 12° 302° (WNW) 08:52:08 437.300
UWE-3 23 Jan 08:51:12 08:55:52 69° 288° (WNW) 09:00:28 435.000/436.395/437.385
CUBEBUG 2 23 Jan 08:51:44 08:56:15 43° 292° (WNW) 09:00:44 437.445
RS-15 23 Jan 08:56:30 09:08:45 74° 123° (ESE) 09:20:44 29.354- 29.394
TIGRISAT 23 Jan 08:56:56 09:01:12 45° 68° (ENE) 09:05:36 435.000
AAUSAT CUBESAT 2 23 Jan 09:02:28 09:06:34 66° 286° (WNW) 09:10:37 437.432
O/OREOS (USA 219) 23 Jan 09:08:11 09:12:21 36° 52° (NE) 09:16:30 437.305
YUBILEINY 23 Jan 09:08:18 09:16:16 37° 63° (ENE) 09:24:09 435.215
ZACube-1 23 Jan 09:08:41 09:13:17 82° 287° (WNW) 09:17:47 437.345
FO-29 23 Jan 09:11:51 09:17:15 27° 267° (W) 09:22:12 435.910
CUTE-I 23 Jan 09:12:02 09:15:29 18° 307° (NW) 09:18:55 437.470
UNISAT 6 23 Jan 09:12:46 09:17:14 68° 72° (ENE) 09:21:50 437.425
AO-73 23 Jan 09:13:43 09:18:19 82° 284° (WNW) 09:22:46 145.935
DELFI C3 23 Jan 09:14:12 09:16:26 15° 89° (E) 09:18:40 145.870
Max Valier Satellite 23 Jan 09:20:19 09:21:05 11° 87° (E) 09:21:53 145.860
SEEDS 23 Jan 09:30:13 09:33:13 19° 299° (WNW) 09:36:12 437.485
BEESAT 3 23 Jan 09:35:09 09:38:45 33° 121° (ESE) 09:42:22 437.485
Oscar 11 23 Jan 09:44:01 09:48:19 64° 287° (WNW) 09:52:34 .
HO-68 23 Jan 09:48:27 09:54:26 30° 307° (NW) 10:00:27 435.675
PCSat 23 Jan 09:54:34 09:59:42 46° 117° (ESE) 10:04:53 145.827
XW-2A 23 Jan 09:59:11 10:01:24 17° 298° (WNW) 10:03:37 145.665 - 145.685
EO-79 23 Jan 10:04:36 10:06:19 12° 54° (NE) 10:08:04 145.935-145.965
PRISM 23 Jan 10:09:20 10:13:20 61° 71° (ENE) 10:17:21 437.425
SO-50 23 Jan 10:17:25 10:20:18 16° 6° (N) 10:23:11 436.795
UWE-3 23 Jan 10:29:31 10:31:28 13° 307° (NW) 10:33:24 435.000/436.395/437.385
BEESAT 2 23 Jan 10:29:56 10:33:35 34° 121° (ESE) 10:37:16 435.950
TIGRISAT 23 Jan 10:34:21 10:38:05 25° 268° (W) 10:41:55 435.000
POLYITAN 1 23 Jan 10:38:22 10:41:44 23° 62° (ENE) 10:45:08 437.675
AO-7 23 Jan 10:40:10 10:40:59 10° 10° (N) 10:41:48 .
ZACube-1 23 Jan 10:46:29 10:48:49 14° 305° (NW) 10:51:09 437.345
DELFI C3 23 Jan 10:47:41 10:51:35 63° 287° (WNW) 10:55:27 145.870
O/OREOS (USA 219) 23 Jan 10:47:42 10:51:45 34° 252° (WSW) 10:55:47 437.305
ESTCUBE 1 23 Jan 10:50:11 10:50:43 10° 84° (E) 10:51:15 437.505/2401.250
NANOSAT C BR1 23 Jan 10:51:02 10:54:34 26° 63° (ENE) 10:58:08 145.865
UNISAT 6 23 Jan 10:51:27 10:54:26 17° 272° (W) 10:57:29 437.425
AO-73 23 Jan 10:51:28 10:53:48 14° 305° (NW) 10:56:07 145.935
Max Valier Satellite 23 Jan 10:51:43 10:55:26 79° 286° (WNW) 10:59:07 145.860
AIST 2D 23 Jan 10:53:44 10:57:15 82° 75° (ENE) 11:00:47 435.315
EO-88 23 Jan 11:03:39 11:07:19 87° 290° (WNW) 11:10:56 145.990 - 145.960
YUBILEINY 23 Jan 11:05:05 11:13:42 66° 267° (W) 11:22:15 435.215
QB50P2 23 Jan 11:07:29 11:11:32 45° 69° (ENE) 11:15:38 145.880/145.840
RS-15 23 Jan 11:10:02 11:22:04 55° 331° (NNW) 11:33:45 29.354- 29.394
BEESAT 3 23 Jan 11:12:28 11:16:14 39° 321° (NW) 11:20:01 437.485
Oscar 11 23 Jan 11:22:42 11:23:36 11° 307° (NW) 11:24:31 .
DUCHIFAT 1 23 Jan 11:32:19 11:36:26 54° 70° (ENE) 11:40:35 145.980
EO-79 23 Jan 11:37:07 11:41:21 78° 73° (ENE) 11:45:39 145.935-145.965
PCSat 23 Jan 11:38:03 11:43:11 42° 318° (NW) 11:48:23 145.827
PRISM 23 Jan 11:46:29 11:49:00 16° 270° (W) 11:51:31 437.425
AO-85 23 Jan 11:57:44 12:01:27 36° 120° (ESE) 12:05:26 145.980
SO-50 23 Jan 11:58:05 12:02:10 29° 30° (NNE) 12:06:18 436.795
BEESAT 2 23 Jan 12:07:26 12:11:15 40° 321° (NW) 12:15:07 435.950
POLYITAN 1 23 Jan 12:13:08 12:17:14 48° 260° (W) 12:21:25 437.675
LO-87 23 Jan 12:13:39 12:17:19 84° 100° (E) 12:20:57 145.935 - 145.965
BUGSAT 1 23 Jan 12:22:26 12:26:21 45° 69° (ENE) 12:30:22 437.445
ESTCUBE 1 23 Jan 12:23:49 12:28:20 75° 104° (ESE) 12:32:48 437.505/2401.250
AO-7 23 Jan 12:24:52 12:30:36 21° 37° (NE) 12:36:20 .
NANOSAT C BR1 23 Jan 12:26:08 12:30:07 40° 262° (W) 12:34:09 145.865
AO-91 23 Jan 12:31:01 12:34:05 31° 66° (ENE) 12:37:21 145.960
Oscar 19 23 Jan 12:31:24 12:36:17 43° 65° (ENE) 12:41:12 437.125/150
EO-88 23 Jan 12:39:36 12:40:19 10° 303° (WNW) 12:41:00 145.990 - 145.960
Gurwin Techsat 1B 23 Jan 12:40:27 12:45:23 40° 64° (ENE) 12:50:20 435.225
QB50P2 23 Jan 12:44:08 12:47:32 23° 268° (W) 12:50:58 145.880/145.840
BEESAT 3 23 Jan 12:52:30 12:54:46 14° 343° (NNW) 12:57:01 437.485
YUBILEINY 23 Jan 13:03:59 13:08:43 16° 290° (WNW) 13:13:26 435.215
DUCHIFAT 1 23 Jan 13:09:25 13:12:25 19° 269° (W) 13:15:28 145.980
EO-79 23 Jan 13:15:31 13:17:39 14° 272° (W) 13:19:50 145.935-145.965
SPROUT 23 Jan 13:20:53 13:25:12 75° 102° (ESE) 13:29:31 437.525
PCSat 23 Jan 13:24:23 13:28:02 18° 343° (NNW) 13:31:41 145.827
RS-15 23 Jan 13:26:08 13:37:33 43° 4° (N) 13:48:29 29.354- 29.394
AO-85 23 Jan 13:37:54 13:41:49 40° 323° (NW) 13:46:04 145.980
SO-50 23 Jan 13:38:23 13:43:05 75° 230° (SW) 13:47:49 436.795
ITAMSAT 1 23 Jan 13:46:15 13:49:22 16° 52° (NE) 13:52:30 435.822/435.867
VELOX 1 23 Jan 13:46:39 13:51:04 74° 104° (ESE) 13:55:28 145.980
BEESAT 2 23 Jan 13:47:38 13:49:59 15° 343° (NNW) 13:52:22 435.950
LO-87 23 Jan 13:48:51 13:50:08 12° 302° (WNW) 13:51:24 145.935 - 145.965
DX 1 23 Jan 13:54:02 13:57:21 21° 92° (E) 14:00:38 434.975-435.025
BUGSAT 1 23 Jan 13:58:43 14:01:56 22° 268° (W) 14:05:12 437.445
ESTCUBE 1 23 Jan 14:01:41 14:04:37 17° 303° (WNW) 14:07:33 437.505/2401.250
AO-91 23 Jan 14:07:58 14:10:42 22° 268° (W) 14:13:34 145.960
Oscar 19 23 Jan 14:11:01 14:15:43 34° 265° (W) 14:20:27 437.125/150
50 SAT 23 Jan 14:11:51 14:14:23 22° 95° (E) 14:16:54 437.505
AO-7 23 Jan 14:13:39 14:21:47 59° 60° (ENE) 14:29:59 .
Gurwin Techsat 1B 23 Jan 14:20:29 14:25:23 37° 264° (W) 14:30:19 435.225
MOZHAYETS 4 23 Jan 14:31:50 14:33:25 12° 85° (E) 14:35:00
BEESAT 3 23 Jan 14:32:18 14:33:53 12° 7° (N) 14:35:26 437.485
SPROUT 23 Jan 14:57:53 15:00:35 16° 302° (WNW) 15:03:16 437.525
BEESAT 23 Jan 15:06:04 15:08:41 14° 87° (E) 15:11:17 436.000
PCSat 23 Jan 15:10:20 15:13:36 16° 9° (N) 15:16:51 145.827
UKube-1 23 Jan 15:11:03 15:15:22 69° 103° (ESE) 15:19:40 .
AO-85 23 Jan 15:20:32 15:23:26 17° 347° (NNW) 15:26:29 145.980
SO-50 23 Jan 15:20:33 15:22:47 13° 250° (WSW) 15:25:01 436.795
ITAMSAT 1 23 Jan 15:22:54 15:28:04 80° 72° (ENE) 15:33:17 435.822/435.867
VELOX 1 23 Jan 15:24:08 15:27:01 17° 303° (WNW) 15:29:53 145.980
BEESAT 2 23 Jan 15:27:33 15:29:19 12° 7° (N) 15:31:04 435.950
DX 1 23 Jan 15:29:35 15:33:49 52° 291° (WNW) 15:38:02 434.975-435.025
M-CUBED/EXP-1 PRIME 23 Jan 15:36:56 15:40:46 37° 62° (ENE) 15:44:21 437.505
RS-15 23 Jan 15:40:39 15:52:35 64° 36° (NE) 16:03:52 29.354- 29.394
50 SAT 23 Jan 15:43:26 15:46:03 25° 293° (WNW) 15:48:40 437.505
CUTE-I 23 Jan 15:44:09 15:44:32 10° 45° (NE) 15:44:55 437.470
DOVE 4 23 Jan 15:51:30 15:55:21 37° 67° (ENE) 15:59:11 437.250
ITUPSAT 1 23 Jan 16:04:47 16:09:25 44° 99° (E) 16:14:01 437.325
MOZHAYETS 4 23 Jan 16:06:40 16:11:21 81° 104° (ESE) 16:15:58
AO-7 23 Jan 16:07:05 16:14:53 42° 262° (W) 16:22:45 .
BEESAT 3 23 Jan 16:09:28 16:12:44 24° 30° (NNE) 16:15:56 437.485
NO-84 23 Jan 16:13:38 16:14:38 11° 133° (SE) 16:15:37 435.350 FM
CUBESAT XI-V 23 Jan 16:18:04 16:22:13 31° 95° (E) 16:26:18 437.345
XW-2F 23 Jan 16:27:23 16:29:15 13° 59° (ENE) 16:31:08 145.980 - 146.000
XW-2D 23 Jan 16:38:52 16:41:34 19° 62° (ENE) 16:44:16 145.860 - 145.880
BEESAT 23 Jan 16:42:17 16:47:07 87° 285° (WNW) 16:51:55 436.000
UKube-1 23 Jan 16:48:03 16:50:55 18° 302° (WNW) 16:53:48 .
HO-68 23 Jan 16:48:10 16:53:50 26° 50° (NE) 16:59:30 435.675
PCSat 23 Jan 16:53:57 16:58:45 31° 35° (NE) 17:03:32 145.827
XW-2B 23 Jan 16:56:01 16:59:11 25° 65° (ENE) 17:02:22 145.730 - 145.750
AO-85 23 Jan 17:02:35 17:05:34 17° 12° (NNE) 17:08:41 145.980
ITAMSAT 1 23 Jan 17:04:45 17:08:10 18° 271° (W) 17:11:36 435.822/435.867
BEESAT 2 23 Jan 17:04:59 17:08:22 24° 31° (NNE) 17:11:42 435.950
M-CUBED/EXP-1 PRIME 23 Jan 17:11:38 17:15:12 27° 258° (WSW) 17:18:35 437.505
KKS-1 23 Jan 17:13:52 17:16:59 18° 91° (E) 17:20:05 437.445
SEEDS 23 Jan 17:17:45 17:19:04 11° 55° (NE) 17:20:24 437.485
CUTE-I 23 Jan 17:18:19 17:23:20 45° 66° (ENE) 17:28:24 437.470
XW-2C 23 Jan 17:25:54 17:29:37 51° 71° (ENE) 17:33:21 145.795 - 145.815
LilacSat-2 23 Jan 17:27:42 17:31:29 58° 73° (ENE) 17:35:17 437.200
DOVE 4 23 Jan 17:29:39 17:33:10 26° 266° (W) 17:36:41 437.250
CUTE 1.7 + AOD 2 23 Jan 17:34:07 17:37:30 23° 63° (ENE) 17:40:53 437.475
ITUPSAT 1 23 Jan 17:42:55 17:47:05 30° 298° (WNW) 17:51:15 437.325
MOZHAYETS 4 23 Jan 17:44:56 17:47:56 17° 303° (WNW) 17:50:54
BEESAT 3 23 Jan 17:46:43 17:50:39 73° 231° (SW) 17:54:31 437.485
NO-84 23 Jan 17:48:18 17:51:20 63° 149° (SSE) 17:54:11 435.350 FM
KAITUO 1B 23 Jan 17:51:44 17:55:28 70° 74° (ENE) 17:59:13 145.475/437.950
RS-15 23 Jan 17:53:43 18:05:00 56° 244° (WSW) 18:15:42 29.354- 29.394
CUBESAT XI-V 23 Jan 17:55:23 17:59:38 37° 294° (WNW) 18:03:51 437.345
NUDT-PHONESAT 23 Jan 17:56:48 18:00:31 75° 74° (ENE) 18:04:16 437.300
XW-2F 23 Jan 17:59:02 18:02:50 76° 257° (WSW) 18:06:39 145.980 - 146.000
XW-2D 23 Jan 18:11:42 18:15:25 49° 260° (W) 18:19:09 145.860 - 145.880
UWE-3 23 Jan 18:17:12 18:20:56 26° 62° (ENE) 18:24:46 435.000/436.395/437.385
CUBEBUG 2 23 Jan 18:17:59 18:22:11 40° 67° (ENE) 18:26:32 437.445
BEESAT 23 Jan 18:21:19 18:24:13 16° 306° (NW) 18:27:06 436.000
AAUSAT CUBESAT 2 23 Jan 18:22:53 18:25:56 20° 62° (ENE) 18:28:59 437.432
XW-2B 23 Jan 18:29:45 18:33:15 33° 263° (W) 18:36:45 145.730 - 145.750
HO-68 23 Jan 18:33:37 18:40:47 89° 246° (WSW) 18:48:01 435.675
ZACube-1 23 Jan 18:33:59 18:37:27 22° 60° (ENE) 18:40:56 437.345
PCSat 23 Jan 18:37:13 18:42:40 74° 237° (WSW) 18:48:04 145.827
AO-73 23 Jan 18:38:45 18:42:11 22° 60° (ENE) 18:45:38 145.935
BEESAT 2 23 Jan 18:42:27 18:46:29 73° 231° (SW) 18:50:27 435.950
AO-85 23 Jan 18:42:54 18:47:16 35° 35° (NE) 18:51:56 145.980
KKS-1 23 Jan 18:49:31 18:53:57 62° 289° (WNW) 18:58:20 437.445
SEEDS 23 Jan 18:49:48 18:54:00 73° 75° (ENE) 18:58:12 437.485
STRAND 1 23 Jan 18:55:13 18:57:59 14° 86° (E) 19:00:46 437.568
STARS 23 Jan 18:56:07 19:00:34 70° 104° (ESE) 19:04:58 437.465
CUTE-I 23 Jan 18:58:48 19:03:33 32° 265° (W) 19:08:19 437.470
XW-2A 23 Jan 19:01:14 19:04:19 32° 69° (ENE) 19:07:25 145.665 - 145.685
XW-2C 23 Jan 19:01:33 19:04:05 17° 270° (W) 19:06:37 145.795 - 145.815
LilacSat-2 23 Jan 19:03:48 19:06:07 15° 271° (W) 19:08:25 437.200
Oscar 11 23 Jan 19:08:14 19:11:47 25° 63° (ENE) 19:15:20 .
CUTE 1.7 + AOD 2 23 Jan 19:08:58 19:13:05 47° 261° (W) 19:17:13 437.475
NO-84 23 Jan 19:25:46 19:28:34 40° 350° (N) 19:31:17 435.350 FM
KAITUO 1B 23 Jan 19:28:20 19:29:54 12° 272° (W) 19:31:27 145.475/437.950
NUDT-PHONESAT 23 Jan 19:33:36 19:34:50 11° 273° (W) 19:36:04 437.300
UWE-3 23 Jan 19:52:48 19:57:08 47° 262° (W) 20:01:38 435.000/436.395/437.385
CUBEBUG 2 23 Jan 19:55:03 19:58:55 28° 267° (W) 20:02:55 437.445
AAUSAT CUBESAT 2 23 Jan 19:57:02 20:01:04 52° 260° (W) 20:05:06 437.432
Max Valier Satellite 23 Jan 20:03:44 20:05:12 12° 58° (ENE) 20:06:39 145.860
DELFI C3 23 Jan 20:04:06 20:06:46 18° 61° (ENE) 20:09:25 145.870
ZACube-1 23 Jan 20:08:53 20:13:20 58° 260° (W) 20:17:53 437.345
RS-15 23 Jan 20:09:21 20:14:21 14° 269° (W) 20:19:16 29.354- 29.394
AO-73 23 Jan 20:13:35 20:18:01 59° 260° (W) 20:22:34 145.935
FO-29 23 Jan 20:14:06 20:18:39 30° 94° (E) 20:23:14 435.910
EO-88 23 Jan 20:15:22 20:16:05 10° 57° (ENE) 20:16:49 145.990 - 145.960
PCSat 23 Jan 20:22:26 20:25:08 14° 256° (WSW) 20:27:50 145.827
BEESAT 2 23 Jan 20:22:52 20:23:25 10° 251° (WSW) 20:23:59 435.950
AO-85 23 Jan 20:23:11 20:27:59 60° 234° (SW) 20:33:06 145.980
HO-68 23 Jan 20:24:17 20:29:30 21° 272° (W) 20:34:45 435.675
SEEDS 23 Jan 20:27:56 20:30:11 14° 272° (W) 20:32:27 437.485
KKS-1 23 Jan 20:28:29 20:29:38 11° 309° (NW) 20:30:46 437.445
STRAND 1 23 Jan 20:32:46 20:37:57 86° 107° (ESE) 20:43:07 437.568
STARS 23 Jan 20:33:24 20:36:26 18° 302° (WNW) 20:39:27 437.465
XW-2A 23 Jan 20:34:27 20:37:05 20° 267° (W) 20:39:44 145.665 - 145.685
Oscar 11 23 Jan 20:43:31 20:47:42 45° 262° (W) 20:51:54 .
nSIGHT-1 23 Jan 20:45:56 20:48:47 31° 151° (SSE) 20:51:40 .
UNISAT 6 23 Jan 21:01:25 21:02:45 11° 84° (E) 21:04:05 437.425
NO-84 23 Jan 21:03:20 21:06:04 42° 12° (NNE) 21:08:48 435.350 FM
ISS 23 Jan 21:12:32 21:15:34 36° 152° (SSE) 21:18:38 437.550
Max Valier Satellite 23 Jan 21:34:41 21:38:25 85° 256° (WSW) 21:42:11 145.860
DELFI C3 23 Jan 21:37:18 21:41:08 55° 259° (W) 21:45:00 145.870
EO-88 23 Jan 21:45:25 21:49:05 86° 75° (ENE) 21:52:46 145.990 - 145.960
ESTCUBE 1 23 Jan 21:52:55 21:56:08 20° 59° (ENE) 21:59:21 437.505/2401.250
FO-29 23 Jan 21:59:05 22:04:02 44° 294° (WNW) 22:08:57 435.910
AO-85 23 Jan 22:06:08 22:07:36 11° 252° (WSW) 22:09:05 145.980
STRAND 1 23 Jan 22:13:01 22:16:30 19° 305° (NW) 22:20:00 437.568
YUBILEINY 23 Jan 22:16:44 22:24:16 33° 81° (E) 22:31:46 435.215
TIGRISAT 23 Jan 22:19:20 22:23:57 50° 99° (E) 22:28:29 435.000
nSIGHT-1 23 Jan 22:21:35 22:24:46 89° 161° (SSE) 22:27:56 .
UNISAT 6 23 Jan 22:35:32 22:40:16 75° 103° (ESE) 22:44:58 437.425
NO-84 23 Jan 22:40:30 22:43:16 50° 212° (SSW) 22:46:03 435.350 FM
SPROUT 23 Jan 22:44:56 22:47:32 16° 57° (ENE) 22:50:09 437.525
ISS 23 Jan 22:48:37 22:51:54 87° 0° (N) 22:55:11 437.550
LO-87 23 Jan 22:53:51 22:57:24 73° 74° (ENE) 23:01:01 145.935 - 145.965
VELOX 1 23 Jan 23:13:53 23:16:54 18° 58° (ENE) 23:19:55 145.980
PRISM 23 Jan 23:20:18 23:24:16 47° 100° (E) 23:28:13 437.425
O/OREOS (USA 219) 23 Jan 23:27:48 23:30:09 14° 99° (E) 23:32:30 437.305
ESTCUBE 1 23 Jan 23:28:00 23:32:30 66° 257° (WSW) 23:37:02 437.505/2401.250
AIST 2D 23 Jan 23:46:22 23:49:45 47° 99° (E) 23:53:06 435.315
POLYITAN 1 23 Jan 23:53:04 23:56:15 20° 91° (E) 23:59:24 437.675
TIGRISAT 23 Jan 23:56:28 00:00:22 26° 298° (WNW) 00:04:15 435.000
nSIGHT-1 23 Jan 23:57:47 00:00:58 89° 331° (NNW) 00:04:10 .
NANOSAT C BR1 24 Jan 00:05:10 00:08:36 23° 93° (E) 00:11:59 145.865
YUBILEINY 24 Jan 00:11:40 00:20:28 70° 284° (WNW) 00:29:16 435.215
UNISAT 6 24 Jan 00:13:12 00:16:27 19° 302° (WNW) 00:19:42 437.425
SPROUT 24 Jan 00:18:38 00:22:53 77° 257° (WSW) 00:27:12 437.525
QB50P2 24 Jan 00:22:31 00:26:36 40° 98° (E) 00:30:39 145.880/145.840
ISS 24 Jan 00:25:09 00:28:26 86° 194° (SSW) 00:31:43 437.550
LO-87 24 Jan 00:30:16 00:31:16 11° 273° (W) 00:32:17 145.935 - 145.965
UKube-1 24 Jan 00:36:03 00:38:50 17° 57° (ENE) 00:41:37 .
50 SAT 24 Jan 00:41:16 00:43:18 16° 63° (ENE) 00:45:21 437.505
DUCHIFAT 1 24 Jan 00:46:22 00:50:31 48° 99° (E) 00:54:38 145.980
VELOX 1 24 Jan 00:48:31 00:52:53 67° 257° (WSW) 00:57:17 145.980
EO-79 24 Jan 00:52:02 00:56:20 71° 103° (ESE) 01:00:36 145.935-145.965
DX 1 24 Jan 00:54:01 00:57:56 35° 65° (ENE) 01:01:53 434.975-435.025
PRISM 24 Jan 00:56:08 00:59:16 22° 299° (WNW) 01:02:24 437.425
O/OREOS (USA 219) 24 Jan 01:04:24 01:08:55 83° 298° (WNW) 01:13:25 437.305
AIST 2D 24 Jan 01:20:21 01:22:35 16° 298° (WNW) 01:24:48 435.315
POLYITAN 1 24 Jan 01:28:08 01:32:20 53° 290° (WNW) 01:36:30 437.675
BUGSAT 1 24 Jan 01:33:54 01:37:54 38° 97° (E) 01:41:52 437.445
nSIGHT-1 24 Jan 01:34:03 01:36:58 33° 209° (SSW) 01:39:51 .
MOZHAYETS 4 24 Jan 01:37:34 01:41:06 22° 60° (ENE) 01:44:39
NANOSAT C BR1 24 Jan 01:40:24 01:44:30 45° 291° (WNW) 01:48:34 145.865
ITUPSAT 1 24 Jan 01:40:55 01:43:54 17° 54° (NE) 01:46:54 437.325
AO-91 24 Jan 01:49:54 01:54:12 42° 98° (E) 01:58:55 145.960
CUBESAT XI-V 24 Jan 01:53:23 01:54:02 10° 50° (NE) 01:54:40 437.345
QB50P2 24 Jan 01:58:37 02:02:14 27° 297° (WNW) 02:05:49 145.880/145.840
ISS 24 Jan 02:01:46 02:04:41 30° 211° (SSW) 02:07:36 437.550
UKube-1 24 Jan 02:10:04 02:14:21 73° 257° (WSW) 02:18:40 .
50 SAT 24 Jan 02:11:53 02:14:45 35° 261° (W) 02:17:39 437.505
AO-7 24 Jan 02:12:52 02:15:02 11° 79° (ENE) 02:17:12 .
YUBILEINY 24 Jan 02:12:59 02:19:11 21° 310° (NW) 02:25:26 435.215
Oscar 19 24 Jan 02:16:29 02:21:38 59° 101° (ESE) 02:26:41 437.125/150
BEESAT 24 Jan 02:16:38 02:20:47 30° 62° (ENE) 02:24:57 436.000
DUCHIFAT 1 24 Jan 02:22:33 02:25:55 23° 298° (WNW) 02:29:15 145.980
EO-79 24 Jan 02:28:49 02:31:36 17° 302° (WNW) 02:34:23 145.935-145.965
